Погода в Крулевщине

Беларусь     55˚01′27″N   27˚47′03″E
темп.,
°C
ветер,
м/с
пор.,
м/с
влажн.,
%
обл.,
%
осадки,
мм/ч
давл.,
гПа
погр.,
м
17 января, вс
вс1700:00−18˚ссз3796100 0.0 1018208
03:00−19˚ссз3598100 0.0 101894
06:00−21˚ссз369996 0.0 101892
09:00−21˚с359898 0.0 1019103
12:00−18˚ссв369473 0.0 1020205
15:00−17˚с359337 0.0 1020217
18:00−20˚с34940 0.0 102133
21:00−20˚с33990 0.0 102226
18 января, пн
пн1800:00−20˚с231000 0.0 102220
03:00−20˚ссз231000 0.0 102220
06:00−20˚сз2210040 0.0 102120
09:00−20˚з2210057 0.0 102120
12:00−15˚зсз239684 0.0 1021115
15:00−12˚зсз239588 0.0 1020181
18:00−13˚з239692 0.3 102046
21:00−13˚з339691 0.5 102080
19 января, вт
вт1900:00−15˚зсз339783 0.1 102037
03:00−15˚з239686 0.1 101943
06:00−16˚з239479 0.1 101829
09:00−18˚зюз229451 0.1 101920
12:00−15˚ююз22930 0.0 101976
15:00−13˚ю23940 0.0 1018136
18:00−15˚ю23930 0.0 101822
21:00−16˚ююв34940 0.0 101841
20 января, ср
ср2000:00−16˚ююв34920 0.0 101864
03:00−17˚ююв47910 0.0 1018100
06:00−17˚ююв47900 0.0 1017119
09:00−16˚ююв510900 0.0 1017195
12:00−13˚ююв6118633 0.0 1017283
15:00−11˚ююв6109367 0.0 1015299
18:00−10˚ююв61193100 0.0 1014328
21:00−9˚ююв71393100 0.1 1012407
21 января, чт
чт2100:00−7˚ю71394100 0.5 1011410
03:00−5˚ю61396100 1.8 1009361
06:00−3˚ю71295100 2.1 1008339
09:00+1˚ююз51199100 2.5 1007369
12:00+1˚ююз51097100 0.3 1007400
15:00+1˚ююз51097100 0.6 1008352
18:00ююз5109496 0.0 1008267
21:00−2˚ююз6119676 0.0 1008264